User: anonymous   Login
Location: Unspecified
(0.0000°N, 0.0000°E)
Time: 15:41:28
(UTC+00:00)
Language:

UWE-4 - Orbit

View from above orbital plane
View from above orbital plane
View from above satellite
View from above satellite

Ground track
Ground track

The orbit data is extracted from the following two-line orbital elements,

1 43880U 18111E   22279.72117708  .00006447  00000-0  53978-3 0  9996
2 43880  97.6565 184.0669 0011234 311.3832  48.6425 14.98733126204367
Epoch (UTC): 06 October 2022 17:18:29
Eccentricity: 0.0011234
inclination: 97.6565°
perigee height: 563 km
apogee height: 578 km
right ascension of ascending node: 184.0669°
argument of perigee: 311.3832°
revolutions per day: 14.98733126
mean anomaly at epoch: 48.6425°
orbit number at epoch: 20436

The dashed part of the orbit path shows where the satellite is in the earth's shadow,  

DLR